Skip Page Navigation
NASA JPL Caltech
NASA Logo - Jet Propulsion Laboratory + View the NASA Portal
+ Center for Near-Earth Object Studies
JPL Home Earth Solar System Stars & Galaxies Technology
JPL Solar System Dynamics
BODIES ORBITS EPHEMERIDES TOOLS PHYSICAL DATA DISCOVERY FAQ SITE MAP
JPL Small-Body Database Browser
Search: [ help ]  
390376 (2013 TA47)
Classification: Main-belt Asteroid          SPK-ID: 2390376
Ephemeris | Orbit Diagram | Orbital Elements | Mission Design | Physical Parameters | Discovery Circumstances | Close-Approach Data ]

[ show orbit diagram ]
Orbital Elements at Epoch 2459000.5 (2020-May-31.0) TDB
Reference: JPL 24 (heliocentric ecliptic J2000)
 Element Value Uncertainty (1-sigma)   Units 
e .1010100422901744 4.0808e-08  
a 2.607958898612851 2.4126e-08 au
q 2.34452885997293 1.0904e-07 au
i 4.782714536204607 6.8444e-06 deg
node 34.28858309506092 5.6158e-05 deg
peri 269.042299770816 6.678e-05 deg
M 276.3501817409441 3.5393e-05 deg
tp 2459357.947317162514
(2021-May-23.44731716)
0.000152 TDB
period 1538.330110652381
4.21
2.1347e-05
5.844e-08
d
yr
n .2340199918776405 3.2474e-09 deg/d
Q 2.871388937252771 2.6563e-08 au
  Orbit Determination Parameters
   # obs. used (total)      216  
   data-arc span      10065 days (27.56 yr)  
   first obs. used      1992-10-25  
   last obs. used      2020-05-16  
   planetary ephem.      DE431  
   SB-pert. ephem.      SB431-N16  
   condition code      0  
   norm. resid. RMS      .62527  
   source      ORB  
   producer      Otto Matic  
   solution date      2020-Nov-12 16:41:26  

Additional Information
 Earth MOID = 1.33541 au 
 Jupiter MOID = 2.32233 au 
 T_jup = 3.399 
[ show covariance matrix ]

Ephemeris | Orbit Diagram | Orbital Elements | Mission Design | Physical Parameters | Discovery Circumstances | Close-Approach Data ]

Physical Parameter Table
Parameter Symbol Value Units Sigma Reference Notes
absolute magnitude H 16.6   n/a MPO434438  

390376 (2013 TA47)          Discovered 2007-Feb-25 by Mt. Lemmon Survey at Mount Lemmon
Reference: Last Updated: 2014-03-21

[ show close-approach data ]
Alternate Designations
 2013 TA47 = 2012 JE24 
Ephemeris | Orbit Diagram | Orbital Elements | Mission Design | Physical Parameters | Discovery Circumstances | Close-Approach Data ]
ABOUT SSD CREDITS/AWARDS PRIVACY/COPYRIGHT GLOSSARY LINKS
FirstGov 2020-Nov-30 06:14 UT
(server date/time)  
NASA Home Page
Site Manager:   Ryan S. Park
Webmaster  Alan B. Chamberlin